Location: Newark
(46.7000°N, 60.6000°W)
Time: 14:31:43
(UTC+00:00)

Explorer 11/Cluster Stage 4 - All Passes

Search period start: 31 October 2020 00:00
Search period end: 10 November 2020 00:00
Orbit: 467 x 1258 km, 28.8° (Epoch: 30 October)

Date Brightness Start Highest point End Pass type
(mag) Time Alt. Az. Time Alt. Az. Time Alt. Az.
31 Oct - 13:17:41 10° S 13:19:58 11° SSE 13:22:18 10° SE daylight
31 Oct - 15:02:21 10° SSW 15:07:45 20° S 15:13:12 10° SE daylight
31 Oct - 16:50:12 10° SW 16:55:45 20° S 17:01:09 10° SE daylight
31 Oct - 18:40:37 10° SW 18:43:31 12° SSW 18:46:20 10° S daylight
01 Nov - 13:05:53 10° S 13:08:45 12° SSE 13:11:43 10° SE daylight
01 Nov - 14:51:07 10° SW 14:56:32 20° S 15:02:05 10° SE daylight
01 Nov - 16:39:05 10° SW 16:44:32 20° S 16:49:54 10° SSE daylight
01 Nov - 18:30:01 10° SW 18:32:18 11° SSW 18:34:32 10° S daylight
02 Nov - 12:54:21 10° S 12:57:32 13° SSE 13:00:53 10° SE daylight
02 Nov - 14:39:57 10° SW 14:45:19 20° S 14:50:55 10° SE daylight
02 Nov - 16:28:02 10° SW 16:33:19 19° S 16:38:36 10° SSE daylight
02 Nov - 18:20:02 10° SSW 18:21:04 10° SSW 18:22:06 10° SSW daylight
03 Nov - 12:42:58 10° S 12:46:21 14° SSE 12:49:56 10° SE daylight
03 Nov - 14:28:50 10° SW 14:34:07 20° S 14:39:41 10° SE daylight
03 Nov - 16:17:04 10° SW 16:22:07 18° SSW 16:27:13 10° SSE daylight
04 Nov - 12:31:42 10° S 12:35:11 14° SSE 12:38:53 10° SE daylight
04 Nov - 14:17:49 10° SW 14:22:56 20° S 14:28:24 10° SE daylight
04 Nov - 16:06:11 10° SW 16:10:54 17° SSW 16:15:43 10° SSE daylight
05 Nov - 12:20:34 10° SSW 12:24:01 14° SSE 12:27:45 10° SE daylight
05 Nov - 14:06:50 10° SW 14:11:46 19° S 14:17:04 10° SE daylight
05 Nov - 15:55:24 10° SW 15:59:42 16° SSW 16:04:07 10° SSE daylight
06 Nov - 12:09:29 10° SSW 12:12:53 15° SSE 12:16:33 10° SE daylight
06 Nov - 13:55:56 10° SW 14:00:36 19° S 14:05:39 10° SE daylight
06 Nov - 15:44:45 10° SW 15:48:30 14° SSW 15:52:22 10° SSE daylight
07 Nov - 11:58:30 10° SSW 12:01:46 14° SSE 12:05:19 10° SE daylight
07 Nov - 13:45:07 10° SW 13:49:28 18° S 13:54:12 10° SE daylight
07 Nov - 15:34:19 10° SW 15:37:19 13° SSW 15:40:26 10° S daylight
08 Nov - 11:47:36 10° SSW 11:50:41 14° SSE 11:54:01 10° SE daylight
08 Nov - 13:34:23 10° SW 13:38:21 16° S 13:42:39 10° SSE daylight
08 Nov - 15:24:21 10° SSW 15:26:09 11° SSW 15:28:00 10° S daylight
09 Nov - 11:36:47 10° SSW 11:39:36 14° S 11:42:40 10° SE daylight
09 Nov - 13:23:45 10° SW 13:27:14 15° S 13:31:02 10° SSE daylight
